Вернуться в каталог

STARLINK-1067

АктивенСвязьVLEO
NORAD 44771·PAYLOAD·🇺🇸 United States

Запущен Nov 11, 2019 с Cape Canaveral Space Force Station

Loading…

Ближайшие Пролёты (ближайшие 24 часа)

TLE

СвежийSource: CelesTrak SupGP

Эпоха: Sep 14, 2026, 20:31 UTC

1 44771C 19074BL  26257.85534722  .01232500  00000+0  62743-3 0  2576
2 44771  53.0268 336.4697 0010509 349.7885  37.9115 16.19665179    14

Отслеживайте STARLINK-1067 в реальном времени с AllMySat

Download on the App Store